Simultaneous Nadir Overpasses (SNOs) Predictions

Prediction of SNOs between GOES-16 and METOP-B Satellite Orbit:

Table of predicted SNOs for the next 14.0 days since TLE Epoch: 11/26/2022
Index Date Time (GOES-16) GOES-16 Lat,Lon METOP-B Lat,Lon Distance(km) Time Diff (sec)
1 11/26/2022 14:44:25 -0.06, -75.21 0.57, -78.13 332.58 80
2 11/27/2022 14:21:07 -0.06, -75.21 -0.55, -73.14 236.69 80
3 11/29/2022 02:42:47 0.05, -75.21 -0.54, -77.72 287.55 80
4 11/30/2022 02:19:29 0.05, -75.21 0.58, -72.73 282.22 80
5 12/01/2022 14:41:02 -0.05, -75.24 0.42, -77.30 234.67 80
6 12/02/2022 14:17:43 -0.05, -75.26 -0.70, -72.31 335.68 80
7 12/04/2022 02:39:25 0.04, -75.27 -0.32, -76.91 186.87 80
8 12/05/2022 02:16:06 0.04, -75.28 0.81, -71.92 383.83 80
9 12/06/2022 14:37:38 -0.04, -75.32 0.25, -76.47 131.93 80
10 12/07/2022 14:14:20 -0.04, -75.34 -0.88, -71.49 439.10 80
11 12/09/2022 02:36:01 0.03, -75.36 -0.13, -76.09 82.59 80
12 12/10/2022 02:12:43 0.03, -75.38 1.00, -71.10 488.67 80
